#timestamp,LO_Frequency,Hit,StdDev 
1593072015.3,286047013.4,N
1593072035.1,286047009.4,N
1593072055.8,286047008.9,N
1593072075.7,286047006.6,N
1593072095.5,286047005.5,N
1593072115.4,286047005.4,N
1593072135.2,286047006.5,N
1593072155.1,286047005.4,N
1593072156.0,286047005.4,N
1593072175.8,286047004.1,N
1593072195.7,286046997.9,N
1593072215.5,286046995.9,N
1593072235.3,286046990.9,N
1593072255.2,286046987.0,N
1593072275.0,286046986.1,N
1593072275.9,286046986.1,N
1593072295.7,286046988.7,N
1593072315.6,286046993.0,N
1593072335.4,286046991.9,N
1593072355.3,286046991.8,N
1593072375.1,286046996.1,N
1593072376.0,286046996.1,N
1593072395.8,286046999.5,N
1593072415.7,286046998.9,N
1593072435.5,286046994.0,N
1593072455.3,286046991.8,N
1593072475.2,286046994.8,N
1593072495.0,286046996.7,N
1593072495.9,286046996.7,N
1593072515.8,286046998.4,N
1593072535.6,286046999.6,N
1593072555.4,286046995.2,N
1593072575.3,286046995.2,N
1593072595.1,286046994.2,N
1593072615.9,286046992.5,N
1593072635.7,286046985.4,N
1593072655.5,286046984.5,N
1593072705.4,286046992.4,E
1593072715.3,286046999.5,N
1593072735.1,286047005.5,P
1593072755.9,286047000.5,N
1593072775.7,286046993.7,N
1593072795.5,286046993.4,N
1593072815.4,286046989.0,N
1593072835.2,286046990.8,N
1593072855.1,286046982.4,Y
1593072856.0,286046982.4,P
1593072875.8,286046983.2,N
1593072895.6,286046979.1,P
1593072915.5,286046979.3,Y
1593072935.3,286046994.4,P
1593072955.2,286046989.7,N
1593072975.9,286046992.6,N
1593072995.7,286046996.6,N
1593073015.6,286046999.9,N
1593073035.4,286047002.5,N
1593073055.3,286047009.2,N
1593073075.1,286047010.4,N
1593073076.0,286047010.4,N
1593073095.8,286047017.2,N
1593073115.7,286047014.2,N
1593073135.5,286047010.8,N
1593073155.3,286047003.5,N
1593073175.2,286047004.6,N
1593073195.0,286047004.3,N
1593073195.9,286047004.3,N
1593073215.8,286046996.7,N
1593073235.6,286046990.1,N
1593073255.4,286046989.8,N
1593073275.3,286046988.1,N
1593073295.1,286046983.3,N
1593073315.8,286046978.2,N
1593073335.7,286046973.6,N
1593073355.5,286046966.8,N
1593073375.4,286046967.5,N
1593073395.2,286046970.2,N
1593073415.0,286046969.1,N
1593073415.9,286046969.1,N
1593073435.8,286046962.4,N
1593073455.6,286046959.0,N
1593073475.4,286046959.1,N
1593073495.3,286046959.5,N
1593073515.1,286046958.7,N
1593073535.9,286046960.1,N
1593073555.7,286046958.0,N
1593073575.5,286046952.3,N
1593073595.4,286046949.0,N
1593073615.2,286046945.4,N
1593073635.0,286046948.6,N
1593073635.9,286046948.6,N
1593073655.8,286046951.1,N
1593073675.6,286046950.7,N
1593073695.5,286046953.4,N
1593073715.3,286046957.9,N
1593073735.1,286046959.4,N
1593073755.9,286046955.6,N
1593073775.7,286046956.0,Y
1593073795.5,286046990.8,P
1593073815.4,286046991.4,N
1593073835.2,286046990.1,N
1593073855.1,286046990.1,N
1593073856.0,286046990.1,N
1593073875.8,286046989.3,N
1593073895.6,286046984.0,N
1593073915.5,286046981.3,N
1593073935.3,286046979.3,N
1593073955.1,286046978.0,N
1593073975.9,286046977.5,N
1593073995.7,286046977.5,N
1593074015.6,286046981.8,N
1593074035.4,286046981.4,N
1593074055.2,286046979.5,N
1593074075.1,286046974.4,Y
1593074076.0,286046974.4,P
1593074095.8,286046989.1,N
1593074115.6,286046987.3,N
1593074135.5,286046985.5,N
1593074155.3,286046982.5,Y
1593074175.2,286046997.9,P
1593074195.9,286046995.1,N
1593074215.7,286046999.4,N
1593074235.6,286046997.6,N
1593074255.4,286046995.2,N
1593074275.2,286046999.2,N
1593074295.1,286047001.7,N
1593074296.0,286047001.7,N
1593074315.8,286047007.6,N
1593074335.7,286047006.3,N
1593074355.5,286047007.3,N
1593074375.3,286047004.8,N
1593074395.2,286047001.3,N
1593074415.0,286047000.5,N
1593074415.9,286047000.5,N
1593074435.7,286046999.6,N
1593074455.6,286046996.3,N
1593074475.4,286046992.9,N
1593074495.3,286046991.5,N
1593074515.1,286046988.6,N
1593074535.8,286046989.4,N
1593074555.7,286046986.5,N
1593074575.5,286046988.1,N
1593074595.4,286046987.2,N
1593074615.2,286046988.7,N
1593074635.0,286046990.3,N
1593074635.9,286046990.3,N
1593074655.8,286046993.1,N
1593074675.6,286046994.5,N
1593074695.4,286046993.8,N
1593074715.3,286046997.5,N
1593074735.1,286046993.2,N
1593074755.9,286046990.5,N
1593074775.7,286046996.4,N
1593074795.5,286046996.0,N
1593074815.4,286046997.6,N
1593074835.2,286046996.7,N
1593074855.1,286046999.6,N
1593074856.0,286047011.9,N
1593074875.8,286046997.3,N
1593074895.6,286046997.0,N
1593074915.5,286046997.7,N
1593074935.3,286046990.2,N
1593074955.2,286046987.0,N
1593074975.9,286046987.0,N
1593074995.7,286046987.4,N
1593075015.6,286046985.8,N
1593075035.4,286046988.0,N
1593075055.2,286046987.7,N
1593075075.1,286046985.0,N
1593075076.0,286046985.0,N
1593075095.8,286046981.3,Y
1593075115.7,286046986.7,P
1593075135.5,286046981.8,P
1593075155.3,286046979.7,P
1593075175.2,286046982.6,Y
1593075195.0,286046998.0,P
1593075195.9,286046998.0,N
1593075215.8,286046994.6,N
1593075235.6,286046990.2,N
1593075255.4,286046990.8,N
1593075275.3,286046991.4,N
1593075295.1,286046990.3,N
1593075315.8,286046989.4,N
1593075335.7,286046988.3,N
1593075355.5,286046985.4,Y
1593075375.4,286046993.9,P
1593075395.2,286046990.9,P
1593075415.0,286046991.2,P
1593075415.9,286046991.2,Y
1593075435.8,286046995.4,P
1593075455.6,286046993.3,P
1593075475.4,286046992.0,P
1593075495.3,286046990.6,Y
1593075515.1,286046996.0,P
1593075535.9,286046993.7,P
1593075555.7,286046993.5,P
1593075575.5,286046995.9,Y
1593075595.4,286046999.1,P
